Tracking 35280 objects as of 7-Sep-2026
HD Live streaming from Space Station
objects crossing your sky now

FLOCK 4G 30

Track FLOCK 4G 30 now!
10-day predictions
FLOCK 4G 30 is classified as:


NORAD ID: 62679
Int'l Code: 2025-009BY
Launch date: January 14, 2025
Source: United States (US)
Launch site: AIR FORCE WESTERN TEST RANGE (AFWTR)
Your satellite tracking list
Your tracking list is empty




NASA's NSSDC Master Catalog

Two Line Element Set (TLE):
1 62679U 25009BY  26249.79604452  .00029752  00000-0  80009-3 0  9991
2 62679  97.3864 331.2529 0002732  52.4372 307.7121 15.37839545149062
Source of the keplerian elements: AFSPC